Location: Unspecified
(0.0000°N, 0.0000°E)
Time: 12:05:22
(UTC+00:00)

Hubble Space Telescope - Pass Details

Date: 15 May 2026
Orbit: 473 x 476 km, 28.5° (Epoch: 18 May)

Event Time Altitude Azimuth Distance (km) Brightness Sun altitude
Exits shadow 05:08:23 17° 253° (WSW) 1,257 2.0 -11.3°
Maximum altitude 05:11:07 59° 330° (NNW) 544 0.7 -10.7°
Drops below altitude 10° 05:14:47 10° 50° (NE) 1,622 4.5 -9.8°
Sets 05:17:00 0° 54° (NE) 2,497 5.9 -9.3°
